Location: Tyrv��
(61.3333°N, 23.0000°E)
Time: 00:56:20
(UTC+00:00)

Daily predictions for brighter satellites

Satellite Brightness Start Highest point End
(mag) Time Altitude Azimuth Time Altitude Azimuth Time Altitude Azimuth
Cosmos 2369 Rocket 4.3 01:09:49 22° NE 01:09:49 22° NE 01:12:12 10° ENE
Cosmos 1943 Rocket 4.2 01:19:30 24° NE 01:19:30 24° NE 01:22:21 10° ENE
ARIANE 5 R/B 4.5 01:54:31 10° NNE 01:56:28 23° NNE 01:56:28 23° NNE
SL-16 R/B 3.3 02:04:55 40° ENE 02:04:55 40° ENE 02:08:42 10° NE
Cosmos 2360 Rocket 3.4 02:08:10 36° E 02:08:10 36° E 02:12:42 10° NE
Cosmos 2322 Rocket 3.3 02:09:52 42° ENE 02:09:52 42° ENE 02:13:50 10° NE
CZ-2C R/B 3.9 02:06:33 10° NNE 02:10:00 36° NE 02:10:00 36° NE
Cosmos 1980 Rocket 3.2 02:23:54 40° NNE 02:23:54 40° NNE 02:27:39 10° NE
Cosmos 2016 Rocket 4.3 02:26:27 63° NNE 02:26:27 63° NNE 02:31:41 10° NNE
IDEFIX/ARIANE 42P 4.2 02:22:47 10° NNE 02:25:11 27° N 02:25:11 27° N
Resurs 1-4 Rocket 4.2 02:26:20 10° N 02:27:47 17° N 02:27:47 17° N
Cosmos 1725 Rocket 4.1 02:32:13 72° ENE 02:32:13 72° ENE 02:38:01 10° NNE
ADEOS II 3.9 02:37:57 10° N 02:39:53 21° N 02:39:53 21° N
CZ-2D R/B 4.1 02:38:31 10° N 02:40:16 18° N 02:40:16 18° N
Cosmos 2061 Rocket 4.0 02:49:33 73° N 02:49:33 73° N 02:55:19 10° NNE
NOSS 3-3 (A) 4.2 02:51:26 74° WNW 02:52:12 89° NE 03:00:09 10° ESE
NOSS 3-3 (C) 4.2 02:51:33 74° WNW 02:52:19 89° NE 03:00:15 10° ESE
Cosmos 2369 Rocket 3.2 02:51:36 37° N 02:52:33 40° NNE 02:57:50 10° E
Cosmos 2278 Rocket 3.0 03:01:07 40° SSE 03:01:07 40° SSE 03:04:43 10° SSE
Cosmos 372 Rocket 4.2 03:00:33 70° E 03:00:33 70° E 03:05:26 10° SE
Cosmos 1125 Rocket 4.4 03:00:27 38° N 03:01:48 45° NE 03:06:54 10° ESE
Cosmos 1943 Rocket 2.8 03:01:01 44° N 03:02:11 51° NNE 03:07:43 10° ESE
USA 215 3.4 02:56:15 10° E 03:02:42 58° SSE 03:03:33 54° SSW
Cosmos 1697 Rocket 3.6 03:03:21 37° N 03:03:21 37° N 03:08:08 10° NE
Cosmos 1867 4.0 03:04:07 53° SSE 03:04:30 55° SE 03:09:51 10° ENE
Cosmos 1864 Rocket 4.4 03:06:01 74° WNW 03:06:01 74° WNW 03:12:16 10° NNE
ALOS 2.6 03:03:34 10° NNE 03:08:10 62° E 03:08:10 62° E
Cosmos 1802 Rocket 4.3 03:16:02 48° NNW 03:16:02 48° NNW 03:21:00 10° N
Cosmos 1470 4.2 03:17:07 33° NE 03:17:07 33° NE 03:19:28 10° NNE
Cosmos 1758 4.4 03:16:01 40° ESE 03:16:39 43° E 03:20:33 10° NNE
Cosmos 2322 4.3 03:14:42 34° S 03:16:58 54° ESE 03:22:33 10° NE
CZ-2C R/B 3.8 03:12:09 10° ESE 03:17:03 40° NE 03:22:04 10° NNW
Cosmos 2237 Rocket 4.5 03:13:55 10° SSE 03:18:11 22° ESE 03:22:29 10° NE
Cosmos 2233 Rocket 3.8 03:16:41 52° SSW 03:18:21 85° WNW 03:24:36 10° NNE
Cosmos 2219 Rocket 3.0 03:18:13 24° S 03:21:17 48° ESE 03:26:38 10° NE
Cosmos 724 4.2 03:21:37 69° WSW 03:22:27 89° NW 03:28:44 10° ENE
Cosmos 2333 Rocket 2.8 03:20:48 28° S 03:23:35 53° ESE 03:29:06 10° NE
Meteor 1-31 Rocket 3.5 03:24:10 10° NNE 03:27:59 51° ESE 03:28:20 49° ESE
Lacrosse 5 rocket 3.8 03:30:45 12° SSE 03:30:45 12° SSE 03:31:10 10° SSE
IRIDIUM 104 4.3 03:22:58 10° S 03:28:11 80° E 03:33:27 10° N
Cosmos 1607 4.0 03:29:27 58° WNW 03:30:40 73° NNW 03:37:12 10° ENE
Okean 1 Rocket 3.9 03:32:34 40° N 03:32:34 40° N 03:35:29 10° NNE
Cosmos 2297 3.7 03:30:03 47° NNW 03:31:46 79° NE 03:37:33 10° SE
Cosmos 921 Rocket 4.3 03:29:49 18° SSE 03:32:30 38° ESE 03:36:25 10° NE
MOS 1 Rocket 3.2 03:28:47 10° SSE 03:33:40 89° WSW 03:34:01 77° NNW
IRIDIUM 114 4.2 03:32:05 10° S 03:37:19 90° SE 03:42:36 10° N
ARIANE 5 R/B 3.9 03:33:59 10° N 03:36:49 26° NNW 03:36:49 26° NNW
DNEPR-1 R/B 4.1 03:38:54 57° NW 03:39:33 62° N 03:44:20 10° ENE
ADEOS 3.7 03:37:29 10° NNE 03:42:45 74° ESE 03:47:58 10° SSW
Cosmos 1328 4.3 03:42:01 40° NNE 03:43:09 58° ENE 03:47:02 10° SSE
COSMOS 2428 3.3 03:39:22 16° SSW 03:43:44 56° ESE 03:49:19 10° NE
Cosmos 2333 4.2 03:42:24 36° SSW 03:44:45 77° SE 03:50:25 10° NE
IRIDIUM 103 4.2 03:41:16 10° S 03:46:29 80° W 03:51:46 10° N
SL-16 R/B 2.3 03:46:47 51° WNW 03:47:25 53° NW 03:53:00 10° NE
Cosmos 1656 Rocket 4.4 03:47:18 28° NNW 03:49:50 46° NNE 03:55:05 10° ESE
CZ-2C R/B 2.8 03:44:53 10° NNE 03:49:23 48° NW 03:49:23 48° NW
FENGYUN 3A 3.5 03:45:27 10° NNE 03:50:51 75° WNW 03:53:18 34° SW
Cosmos 2360 Rocket 2.1 03:49:57 52° WSW 03:51:17 74° NW 03:56:59 10° NE
Cosmos 1891 Rocket 4.5 03:46:01 10° S 03:52:10 80° E 03:58:15 10° NNE
Cosmos 2322 Rocket 2.3 03:51:41 51° WNW 03:52:30 56° NW 03:58:04 10° NE
Meteor 1-22 Rocket 4.2 03:51:06 32° SW 03:53:55 70° WNW 04:00:00 10° NNE
Cosmos 1464 Rocket 4.0 03:49:55 10° S 03:56:03 79° E 04:02:15 10° NNE
Cosmos 2084 Rocket 3.9 03:56:40 48° SSW 03:56:40 48° SSW 04:00:37 10° SE
Cosmos 2150 Rocket 3.9 03:57:27 37° NW 03:59:39 83° WSW 04:05:02 10° SSE
Meteor PRIRODA 4.4 03:56:13 10° NNE 03:59:48 51° E 04:03:21 10° S
Cosmos 1544 Rocket 4.0 03:56:26 10° S 04:00:42 62° E 04:05:00 10° NNE
Meteor 2-10 4.1 03:55:35 10° SSW 04:01:10 89° E 04:06:35 10° NNE
Cosmos 1072 Rocket 4.5 03:55:05 10° S 04:01:21 88° ESE 04:07:45 10° NNE
IRIDIUM 106 4.2 03:59:41 10° SSW 04:04:52 63° WNW 04:10:05 10° N
Cosmos 1484 Rocket 3.5 04:02:47 10° N 04:05:43 41° NNW 04:05:43 41° NNW
IDEFIX/ARIANE 42P 4.0 04:02:53 10° N 04:06:00 22° NNW 04:06:00 22° NNW
Cosmos 1980 Rocket 3.1 04:05:39 30° NW 04:06:59 34° NNW 04:12:09 10° NE
Cosmos 1763 Rocket 3.7 04:02:57 10° SSW 04:08:07 70° ESE 04:13:24 10° NE
Resurs 1-4 Rocket 4.2 04:07:04 10° N 04:08:52 12° NNW 04:08:52 12° NNW
Cosmos 1626 Rocket 3.5 04:09:08 41° NW 04:10:31 63° W 04:14:57 10° S
Cosmos 1726 2.0 04:13:45 66° NW 04:13:45 66° NW 04:17:21 10° NNE
Cosmos 1092 Rocket 3.9 04:07:58 10° NNW 04:14:09 84° WSW 04:20:19 10° S
Cosmos 841 Rocket 4.4 04:10:10 10° S 04:15:06 48° ESE 04:20:05 10° NE
Cosmos 1908 3.8 04:15:51 10° S 04:19:36 58° E 04:23:23 10° NNE
DMSP B5D2-2 4.3 04:14:36 10° SSE 04:19:50 70° ENE 04:25:07 10° NNW
ADEOS II 3.9 04:18:24 10° N 04:20:50 15° NNW 04:20:50 15° NNW
CZ-2D R/B 4.2 04:19:25 10° N 04:21:15 12° NNW 04:21:35 12° NNW
Cosmos 2098 Rocket 4.0 04:14:35 10° NNW 04:21:30 80° ENE 04:27:06 10° SSE
Cosmos 1953 2.3 04:17:41 10° S 04:21:41 83° E 04:25:41 10° NNE
Cosmos 1892 4.2 04:18:56 10° N 04:22:30 35° ENE 04:26:04 10° SE
Cosmos 2298 Rocket 4.1 04:21:37 30° NW 04:24:08 59° WSW 04:29:22 10° SSE
Cosmos 1455 Rocket 2.9 04:23:08 10° SSW 04:27:28 64° WNW 04:31:48 10° N
Cosmos 2237 4.4 04:27:12 33° W 04:29:31 52° NNW 04:35:09 10° NE
Nadezhda 4 Rocket 4.1 04:24:06 10° NNW 04:30:00 50° W 04:35:51 10° SSW
Cosmos 1356 Rocket 3.7 04:30:13 42° W 04:30:39 44° WNW 04:34:44 10° N
deb Chang Zheng 4 3.4 04:27:53 10° NNE 04:32:12 79° WNW 04:36:26 10° SSW
Cosmos 1758 Rocket 3.5 04:28:43 10° NNW 04:33:15 80° WSW 04:37:45 10° S
Cosmos 2034 Rocket 4.0 04:27:47 10° SSW 04:34:12 84° WNW 04:40:37 10° NNE
METEOR-M 4.3 04:30:52 10° NNE 04:36:03 50° WNW 04:41:12 10° SW
Cosmos 1340 3.3 04:37:38 35° WSW 04:37:38 35° WSW 04:40:36 10° SSW
Cosmos 2369 Rocket 2.2 04:33:24 22° NW 04:37:13 88° NE 04:42:51 10° SE
SJ-12 4.0 04:34:19 10° NNE 04:38:25 55° WNW 04:42:28 10° SW
Meteor 1-11 4.1 04:33:35 10° NNW 04:39:11 70° WSW 04:44:44 10° S
Cosmos 2278 Rocket 3.5 04:43:00 21° WSW 04:43:00 21° WSW 04:46:29 10° SSW
Okean O Rocket 3.3 04:38:33 10° NNE 04:42:37 35° E 04:46:39 10° SSE
Cosmos 468 Rocket 3.9 04:38:18 10° SW 04:43:36 75° NW 04:48:57 10° NNE
Cosmos 1125 Rocket 3.6 04:40:44 22° NW 04:44:07 59° WSW 04:49:20 10° SSE
ALOS 2.9 04:41:17 10° N 04:45:28 33° NW 04:46:41 28° W
Cosmos 1943 Rocket 2.2 04:42:32 22° NW 04:46:12 64° WSW 04:51:48 10° SSE
USA 215 3.5 04:39:51 10° ESE 04:46:19 61° S 04:50:54 21° W
Cosmos 1461 3.8 04:42:49 10° SW 04:47:28 57° SE 04:52:09 10° ENE
Envisat 3.1 04:42:40 10° NNE 04:47:48 81° ESE 04:52:54 10° SSW
Cosmos 1867 3.6 04:44:47 25° W 04:48:05 73° NNW 04:53:36 10° ENE
Cosmos 1697 Rocket 3.8 04:45:04 19° NW 04:48:11 32° N 04:53:14 10° ENE
Cosmos 1703 3.9 04:48:46 32° W 04:48:49 32° W 04:52:19 10° SSW
Cosmos 1634 Rocket 4.3 04:43:18 10° S 04:49:26 71° E 04:55:37 10° NNE
SL-16 R/B 4.0 04:44:50 10° S 04:49:53 35° ESE 04:54:58 10° NE
Cosmos 1602 Rocket 4.0 04:48:18 19° NNW 04:51:06 39° W 04:55:15 10° SSW
Cosmos 1470 3.7 04:52:29 27° NW 04:52:29 27° NW 04:55:23 10° N
Cosmos 1758 3.9 04:51:49 27° WSW 04:53:13 35° WNW 04:57:01 10° N
Cosmos 1814 Rocket 4.3 04:49:09 10° SSW 04:54:14 67° ESE 04:59:21 10° NE
NOAA 6 4.3 04:51:43 10° NNE 04:56:56 72° ESE 05:02:08 10° SSW
CZ-2C R/B 2.6 04:52:02 10° S 04:57:15 59° WSW 05:02:37 10° NNW
Cosmos 1346 Rocket 2.9 04:54:47 18° NNW 04:57:33 50° W 05:01:24 10° S
H-2A R/B 2.6 04:54:08 10° N 04:57:47 58° WNW 05:01:26 10° SSW
Cosmos 2266 Rocket 4.3 04:52:56 10° NNW 04:59:01 67° ENE 05:05:02 10° SSE
CZ-4B R/B 2.8 04:56:02 10° N 04:59:31 47° WNW 05:03:00 10° SW
Cosmos 2322 3.8 04:56:41 16° WSW 05:01:14 57° NW 05:06:56 10° NE
Cosmos 2237 Rocket 2.4 04:55:47 10° SSW 05:01:28 74° SE 05:07:12 10° NE
Cosmos 2084 3.6 04:58:15 16° WSW 05:01:42 76° SSE 05:06:08 10° ENE
Meteor 1-31 Rocket 3.6 04:58:49 10° N 05:02:15 30° WNW 05:03:43 23° W
Meteor 2-19 Rocket 4.4 04:56:26 10° NNW 05:02:31 65° W 05:08:33 10° S
Cosmos 2219 Rocket 2.2 05:00:00 12° WSW 05:05:13 61° NW 05:10:48 10° NE
Spot 2 4.1 05:01:45 10° NNE 05:05:52 73° ESE 05:09:54 10° SSW
Cosmos 2026 Rocket 4.1 05:00:42 10° NNW 05:06:50 54° W 05:13:00 10° SSW
SMAP 3.5 05:02:24 10° NNE 05:07:04 67° ESE 05:11:43 10° S
Cosmos 2333 Rocket 2.3 05:02:51 13° WSW 05:07:55 58° NW 05:13:33 10° NE
Cosmos 1825 Rocket 3.7 05:04:01 10° NNW 05:08:23 55° W 05:12:45 10° S
Cosmos 1655 Rocket 4.1 05:02:33 10° NNW 05:08:51 85° ENE 05:15:09 10° SSE
YAOGAN 6 2.6 05:06:21 10° N 05:10:01 61° WNW 05:13:41 10° SSW
Cosmos 921 Rocket 3.2 05:06:41 10° SW 05:10:46 46° NW 05:14:51 10° NNE
MOS 1 Rocket 4.5 05:08:56 10° SW 05:12:33 21° W 05:13:19 20° WNW
Cosmos 1939 Rocket 4.2 05:09:25 10° NNE 05:13:14 43° E 05:17:00 10° S
Cosmos 2297 4.4 05:11:59 18° WNW 05:15:36 35° WSW 05:20:44 10° S
NOSS 0 Rocket 3.9 05:09:57 10° SW 05:16:11 89° NW 05:22:24 10° NE
ARIANE 5 R/B 4.3 05:13:57 10° N 05:16:15 13° NNW 05:17:09 13° NW
Cosmos 1607 4.2 05:13:34 18° WNW 05:18:34 65° N 05:25:03 10° E
Cosmos 540 Rocket 3.4 05:14:37 10° SW 05:19:46 73° NW 05:24:57 10° NNE
ADEOS 4.2 05:17:20 10° N 05:21:59 33° NW 05:26:36 10° WSW
Cosmos 2058 3.2 05:17:53 10° NNW 05:22:03 71° ENE 05:26:10 10° SSE
Lacrosse 4 Rocket 2.8 05:20:20 10° SSW 05:24:24 43° SE 05:28:35 10° NE
PSLV R/B 3.8 05:22:25 10° NNE 05:26:16 56° WNW 05:30:11 10° SW
CZ-2C R/B 4.0 05:23:48 10° N 05:27:07 18° NW 05:28:47 15° WNW
DNEPR-1 R/B 3.9 05:23:13 17° WNW 05:27:23 75° NNE 05:31:55 10° ESE
COSMOS 2428 2.8 05:22:32 10° WSW 05:28:09 56° NW 05:33:47 10° NE
CZ-4 R/B 3.6 05:24:57 10° NNE 05:28:21 27° E 05:31:42 10° SSE
Cosmos 1825 2.5 05:24:52 10° NNW 05:28:40 67° ENE 05:32:27 10° SSE
Cosmos 1408 2.4 05:25:19 10° NNW 05:28:55 85° WSW 05:32:31 10° S
Cosmos 1400 Rocket 3.0 05:25:02 10° SW 05:29:04 51° WNW 05:33:08 10° NNE
Cosmos 1455 4.2 05:26:49 10° SSE 05:30:09 31° E 05:33:31 10° NNE
Cosmos 1953 Rocket 3.7 05:26:09 10° NNW 05:30:22 50° W 05:34:33 10° S
CZ-2C R/B 3.8 05:27:13 10° SSE 05:31:39 78° ENE 05:36:08 10° NNW
Cosmos 1809 Rocket 4.4 05:25:51 10° NNW 05:32:03 77° W 05:38:15 10° S
SL-16 R/B 3.1 05:28:38 15° WNW 05:32:38 33° N 05:37:45 10° NE
Cosmos 1184 Rocket 3.0 05:29:57 10° NNW 05:33:12 72° ENE 05:36:28 10° SSE
Cosmos 1656 Rocket 3.6 05:28:40 12° NW 05:33:47 71° SW 05:39:11 10° SSE
Cosmos 1980 3.7 05:28:56 10° SW 05:34:37 78° NW 05:40:19 10° NE
Cosmos 1300 2.6 05:31:19 10° SSW 05:35:08 73° WNW 05:38:59 10° NNE
Cosmos 2360 Rocket 2.9 05:31:43 14° W 05:36:07 36° NNW 05:41:22 10° NE
SWARM C 4.4 05:33:40 10° N 05:37:01 73° W 05:40:20 10° S
SWARM A 4.1 05:33:47 10° N 05:37:07 70° W 05:40:26 10° S
Cosmos 2322 Rocket 3.1 05:33:30 14° WNW 05:37:37 33° N 05:42:41 10° NE
Cosmos 1544 Rocket 4.4 05:35:07 10° WSW 05:38:53 28° WNW 05:42:43 10° N
CZ-4B DEB 4.2 05:36:25 10° NNE 05:41:58 68° WNW 05:47:30 10° SW
Cosmos 1441 Rocket 3.2 05:38:37 10° NNW 05:42:37 70° WSW 05:46:33 10° S
SL-19 R/B 4.4 05:38:16 10° NNE 05:42:43 66° WNW 05:46:33 10° SW
MOS 1-B 4.3 05:40:22 10° NNE 05:46:10 74° WNW 05:51:55 10° SSW
CZ-2D R/B 3.9 05:42:25 10° NNE 05:46:13 59° ESE 05:49:58 10° S
Cosmos 1076 Rocket 3.6 05:44:31 10° NNW 05:48:51 80° ENE 05:53:07 10° SSE
Cosmos 1726 3.9 05:48:15 13° WNW 05:49:33 15° NW 05:51:43 10° NNW
H-2A R/B 3.7 05:45:01 10° NNE 05:50:03 40° E 05:55:08 10° SSE
Cosmos 1763 Rocket 4.0 05:45:25 10° WSW 05:50:21 40° NW 05:55:21 10° NNE
Cosmos 2292 Rocket 3.6 05:48:44 10° NNW 05:51:24 28° W 05:53:59 10° SSW
CENTAUR R/B 4.2 05:45:47 10° SSW 05:51:37 41° SE 05:58:30 10° ENE
Cosmos 1606 Rocket 3.5 05:47:21 10° SSW 05:51:40 68° WNW 05:56:02 10° NNE
Cosmos 1980 Rocket 3.2 05:47:25 11° NW 05:52:24 34° NNE 05:57:35 10° ENE
Cosmos 1908 4.2 05:52:31 10° WSW 05:55:45 25° WNW 05:58:59 10° N
H-2A R/B 2.7 05:51:27 10° NNE 05:55:49 57° WNW 06:00:15 10° SW
Cosmos 2228 3.0 05:52:49 10° SSW 05:57:01 57° WNW 06:01:13 10° N
Cosmos 841 Rocket 3.7 05:52:02 10° WSW 05:57:04 51° NW 06:02:08 10° NNE
CZ-2C R/B 3.9 05:51:39 10° NNE 05:57:29 66° ESE 06:03:16 10° S
Cosmos 1892 3.3 05:54:40 10° NNW 05:58:14 38° W 06:01:48 10° SSW
Cosmos 1953 3.6 05:55:35 10° WSW 05:58:37 20° NW 06:01:39 10° N
ATLAS CENTAUR R/B 2.4 05:58:30 10° SSW 06:02:01 44° SE 06:05:34 10° ENE
Meteor 2-16 Rocket 4.5 05:56:20 10° NNW 06:02:30 79° W 06:08:37 10° S
MOS 1-B Rocket 4.1 05:59:04 10° SSE 06:05:35 84° WSW 06:11:24 10° NNW
Cosmos 1633 3.5 06:04:33 10° N 06:08:03 48° ENE 06:11:31 10° SE
Cosmos 972 Rocket 4.3 06:04:43 10° SW 06:10:50 67° NW 06:16:19 10° NNE
Cosmos 1570 Rocket 4.3 06:10:08 10° WSW 06:15:12 47° NW 06:20:20 10° NNE
Helios 1A Rocket 4.3 06:12:03 10° NNE 06:16:03 44° E 06:19:59 10° S
Cosmos 1315 Rocket 3.1 06:14:46 10° SW 06:18:32 44° WNW 06:22:20 10° N
Okean-O 3.4 06:14:31 10° NNE 06:18:56 60° ESE 06:23:20 10° S
Okean O Rocket 1.8 06:14:54 10° NNE 06:19:10 50° WNW 06:23:22 10° SW
Cosmos 2279 Rocket 4.1 06:13:01 10° SSW 06:19:10 58° WNW 06:25:24 10° NNE
Cosmos 2369 Rocket 3.2 06:15:58 10° NW 06:20:45 29° WSW 06:25:29 10° SSW
